CW3827 Weather Reports


Display with metric or nautical units.
time (UTC)temp
F
wind
direction
speed
MPH
gust
MPH
rain 1hr
in
rain 24hr
in
rain mn
in
humidity
%
barometer
mb
20260510103025 61 71 2.0 6.0 0.00 0.00 0.00 23 1018.7
20260510101532 62 61 6.0 9.0 0.00 0.00 0.00 23 1018.2
20260510100023 60 5 6.0 7.0 0.00 0.00 0.00 25 1018.0
20260510094505 60 349 7.0 9.0 0.00 0.00 0.00 26 1017.9
20260510093014 61 8 0.0 0.0 0.00 0.00 0.00 25 1017.9
20260510091507 63 131 2.0 8.0 0.00 0.00 0.00 24 1017.9
20260510090008 63 29 3.0 6.0 0.00 0.00 0.00 25 1017.6
20260510084505 60 349 5.0 6.0 0.00 0.00 0.00 28 1017.5
20260510083004 61 357 7.0 10.0 0.00 0.00 0.00 28 1017.4
20260510081507 61 349 6.0 9.0 0.00 0.00 0.00 27 1017.2
20260510080016 61 346 7.0 10.0 0.00 0.00 0.00 28 1017.3
20260510074515 61 330 5.0 8.0 0.00 0.00 0.00 27 1017.4
20260510073012 61 316 4.0 6.0 0.00 0.00 0.00 26 1017.7
20260510071508 64 342 2.0 5.0 0.00 0.00 0.00 25 1017.7
20260510070004 60 201 4.0 8.0 0.00 0.00 0.00 27 1017.7
20260510064512 63 308 4.0 6.0 0.00 0.00 0.00 26 1017.6
20260510063018 63 294 3.0 6.0 0.00 0.00 0.00 25 1017.5
20260510061523 65 324 5.0 7.0 0.00 0.00 0.00 23 1017.7
20260510060013 66 349 2.0 7.0 0.00 0.00 0.00 22 1017.8
20260510054510 67 349 5.0 8.0 0.00 0.00 0.00 22 1017.8
20260510053017 67 13 1.0 8.0 0.00 0.00 0.00 22 1017.9
20260510051507 65 204 0.0 5.0 0.00 0.00 0.00 22 1017.7
20260510050021 66 314 0.0 4.0 0.00 0.00 0.00 22 1017.8
20260510044520 69 253 2.0 4.0 0.00 0.00 0.00 20 1017.7
20260510043011 72 26 2.0 11.0 0.00 0.00 0.00 19 1017.6
20260510041515 73 70 9.0 16.0 0.00 0.00 0.00 19 1017.4
20260510040005 72 117 11.0 19.0 0.00 0.00 0.00 18 1017.4
20260510034527 72 68 14.0 19.0 0.00 0.00 0.00 18 1017.2
20260510033024 70 111 1.0 4.0 0.00 0.00 0.00 18 1017.1
20260510031518 70 115 2.0 5.0 0.00 0.00 0.00 18 1017.0
20260510030024 70 143 4.0 7.0 0.00 0.00 0.00 18 1016.6
20260510024515 72 148 4.0 11.0 0.00 0.00 0.00 17 1016.4
20260510023009 71 58 5.0 7.0 0.00 0.00 0.00 17 1016.1
20260510021529 74 49 5.0 16.0 0.00 0.00 0.00 16 1016.1
20260510020024 73 155 8.0 14.0 0.00 0.00 0.00 16 1015.9
20260510014524 74 54 9.0 13.0 0.00 0.00 0.00 16 1015.7
20260510013018 76 65 6.0 12.0 0.00 0.00 0.00 15 1015.6
20260510011517 77 190 12.0 21.0 0.00 0.00 0.00 14 1015.6
20260510010013 78 70 10.0 18.0 0.00 0.00 0.00 14 1015.6
20260510004503 79 85 9.0 21.0 0.00 0.00 0.00 14 1015.8
20260510003004 80 93 5.0 19.0 0.00 0.00 0.00 13 1015.8
20260510001504 80 86 11.0 17.0 0.00 0.00 0.00 13 1015.6
20260510000007 80 102 6.0 12.0 0.00 0.00 0.00 13 1015.5
20260509234515 81 96 1.0 5.0 0.00 0.00 0.00 13 1015.6
20260509233006 81 132 6.0 11.0 0.00 0.00 0.00 13 1015.8
20260509231509 82 102 12.0 20.0 0.00 0.00 0.00 12 1015.8
20260509230004 82 110 2.0 24.0 0.00 0.00 0.00 12 1015.9
20260509224512 83 85 15.0 23.0 0.00 0.00 0.00 12 1016.0
20260509223004 84 47 11.0 21.0 0.00 0.00 0.00 12 1016.3
20260509221506 82 179 4.0 18.0 0.00 0.00 0.00 12 1016.6
20260509220004 83 94 8.0 22.0 0.00 0.00 0.00 12 1016.7
20260509214507 84 90 9.0 20.0 0.00 0.00 0.00 12 1017.0
20260509213005 82 34 8.0 18.0 0.00 0.00 0.00 12 1017.1
20260509211509 83 77 8.0 24.0 0.00 0.00 0.00 12 1017.4
20260509210006 83 201 8.0 16.0 0.00 0.00 0.00 12 1017.3
20260509204507 83 96 10.0 21.0 0.00 0.00 0.00 12 1017.7
20260509203011 83 107 11.0 18.0 0.00 0.00 0.00 11 1018.0
20260509201509 82 39 8.0 20.0 0.00 0.00 0.00 12 1018.4
20260509200008 82 353 4.0 15.0 0.00 0.00 0.00 12 1018.6
20260509194507 82 36 13.0 22.0 0.00 0.00 0.00 11 1018.7
20260509193012 82 131 6.0 21.0 0.00 0.00 0.00 12 1018.8
20260509191511 83 92 15.0 25.0 0.00 0.00 0.00 12 1018.8
20260509190011 82 146 14.0 20.0 0.00 0.00 0.00 13 1019.0
20260509184522 81 93 9.0 19.0 0.00 0.00 0.00 14 1019.2
20260509183012 80 125 5.0 16.0 0.00 0.00 0.00 15 1019.4
20260509181511 79 4 8.0 15.0 0.00 0.00 0.00 16 1019.7
20260509180012 78 113 11.0 16.0 0.00 0.00 0.00 17 1020.0
20260509174515 77 165 7.0 17.0 0.00 0.00 0.00 17 1020.2
20260509173018 77 79 6.0 15.0 0.00 0.00 0.00 18 1020.3
20260509171516 75 70 7.0 15.0 0.00 0.00 0.00 18 1020.5
20260509170019 74 71 5.0 13.0 0.00 0.00 0.00 19 1020.6
20260509164519 73 35 4.0 14.0 0.00 0.00 0.00 20 1020.6
20260509163023 72 8 7.0 13.0 0.00 0.00 0.00 20 1020.5
20260509161520 72 23 5.0 12.0 0.00 0.00 0.00 21 1020.4
20260509160020 72 43 8.0 14.0 0.00 0.00 0.00 20 1020.3
20260509154505 72 20 6.0 15.0 0.00 0.00 0.00 20 1020.1
20260509153003 72 349 7.0 12.0 0.00 0.00 0.00 19 1020.2
20260509151521 72 10 4.0 10.0 0.00 0.00 0.00 19 1020.1
20260509150018 71 250 0.0 2.0 0.00 0.00 0.00 19 1020.1
20260509144518 69 8 0.0 1.0 0.00 0.00 0.00 20 1020.0
20260509143015 67 78 0.0 5.0 0.00 0.00 0.00 21 1020.0
20260509141519 66 50 0.0 5.0 0.00 0.00 0.00 22 1020.0
20260509140006 65 6 0.0 2.0 0.00 0.00 0.00 22 1019.9
20260509134530 65 5 0.0 0.0 0.00 0.00 0.00 22 1019.9
20260509133022 63 138 0.0 0.0 0.00 0.00 0.00 25 1019.9
20260509131526 60 135 0.0 0.0 0.00 0.00 0.00 26 1019.6
20260509130020 58 108 0.0 0.0 0.00 0.00 0.00 28 1019.4
20260509124514 54 113 0.0 2.0 0.00 0.00 0.00 30 1019.3
20260509123013 54 106 2.0 4.0 0.00 0.00 0.00 30 1019.0
20260509121528 51 70 3.0 4.0 0.00 0.00 0.00 32 1019.0
20260509120025 53 72 2.0 4.0 0.00 0.00 0.00 29 1018.7
20260509114523 53 71 3.0 5.0 0.00 0.00 0.00 31 1018.6
20260509113019 52 71 4.0 6.0 0.00 0.00 0.00 31 1018.5
20260509111516 52 75 5.0 6.0 0.00 0.00 0.00 31 1018.6
20260509110028 53 84 3.0 3.0 0.00 0.00 0.00 30 1018.4
20260509104528 55 70 0.0 3.0 0.00 0.00 0.00 28 1018.3